When you browse on this site, cookies collect data to enhance your experience and personalize the content and advertising you see.
Visit our Privacy Policy to learn more. By continuing to use the site, you agree to this use of cookies and data.
  • In Hungary
  • List of Countries
  • For 7 days
  • Water Temperature
  • Satellite Maps
  • Weather Map
  • News
  • Weather Widgets
  • user-avatar
    Login

    Hourly Weather Shumen

    Today, 21 April, Sunday

    Time Temperature Precipitation Wind Pressure Humidity
    00:00 +4°C° 0 mm 1 mps 737 mmHg 71%
    01:00 +3°C° 0 mm 2 mps 737 mmHg 71%
    02:00 +3°C° 0 mm 2 mps 736 mmHg 71%
    03:00 +3°C° 0 mm 2 mps 736 mmHg 71%
    04:00 +2°C° 0 mm 2 mps 736 mmHg 71%
    05:00 +2°C° 0 mm 2 mps 736 mmHg 71%
    06:00 +4°C° 0 mm 2 mps 736 mmHg 67%
    07:00 +6°C° 0 mm 2 mps 736 mmHg 62%
    08:00 +8°C° 0 mm 2 mps 736 mmHg 58%
    09:00 +9°C° 0 mm 2 mps 736 mmHg 54%
    10:00 +12°C° 0 mm 1 mps 736 mmHg 50%
    11:00 +13°C° 0 mm 1 mps 736 mmHg 46%
    12:00 +14°C° 0 mm 1 mps 736 mmHg 46%
    13:00 +14°C° 0 mm 1 mps 735 mmHg 46%
    14:00 +14°C° 0 mm 1 mps 735 mmHg 47%
    15:00 +14°C° 0.2 mm 1 mps 735 mmHg 49%
    16:00 +14°C° 0.2 mm 1 mps 735 mmHg 52%
    17:00 +14°C° 0.2 mm 1 mps 734 mmHg 54%
    18:00 +12°C° 0.1 mm 1 mps 734 mmHg 63%
    19:00 +9°C° 0.1 mm 2 mps 734 mmHg 72%
    20:00 +7°C° 0.1 mm 3 mps 734 mmHg 81%
    21:00 +5°C° 0 mm 3 mps 734 mmHg 81%
    22:00 +6°C° 0 mm 2 mps 734 mmHg 80%
    23:00 +5°C° 0 mm 2 mps 734 mmHg 80%

    Tomorrow, 22 April, Monday

    Time Temperature Precipitation Wind Pressure Humidity
    00:00 +5°C° 0 mm 2 mps 734 mmHg 80%
    01:00 +4°C° 0 mm 2 mps 734 mmHg 79%
    02:00 +4°C° 0 mm 2 mps 734 mmHg 79%
    03:00 +4°C° 0 mm 2 mps 733 mmHg 79%
    04:00 +4°C° 0 mm 2 mps 733 mmHg 80%
    05:00 +4°C° 0 mm 2 mps 733 mmHg 81%
    06:00 +5°C° 0 mm 2 mps 733 mmHg 78%
    07:00 +7°C° 0 mm 3 mps 733 mmHg 75%
    08:00 +8°C° 0 mm 3 mps 734 mmHg 71%
    09:00 +10°C° 0 mm 4 mps 734 mmHg 67%
    10:00 +12°C° 0 mm 5 mps 734 mmHg 63%
    11:00 +14°C° 0 mm 5 mps 734 mmHg 59%
    12:00 +14°C° 0.2 mm 5 mps 734 mmHg 59%
    13:00 +14°C° 0.2 mm 6 mps 734 mmHg 59%
    14:00 +15°C° 0.2 mm 6 mps 734 mmHg 59%
    15:00 +13°C° 0.2 mm 6 mps 734 mmHg 62%
    16:00 +11°C° 0.2 mm 6 mps 734 mmHg 64%
    17:00 +10°C° 0.2 mm 6 mps 734 mmHg 67%
    18:00 +8°C° 0.1 mm 5 mps 734 mmHg 68%
    19:00 +7°C° 0.1 mm 5 mps 734 mmHg 70%
    20:00 +5°C° 0.1 mm 4 mps 734 mmHg 72%
    21:00 +5°C° 0 mm 4 mps 735 mmHg 74%
    22:00 +4°C° 0 mm 3 mps 735 mmHg 76%
    23:00 +3°C° 0 mm 3 mps 735 mmHg 78%

    Day after tomorrow, 23 April, Tuesday

    Time Temperature Precipitation Wind Pressure Humidity
    00:00 +3°C° 0 mm 3 mps 735 mmHg 80%
    01:00 +3°C° 0 mm 3 mps 735 mmHg 82%
    02:00 +2°C° 0 mm 3 mps 735 mmHg 85%
    03:00 +2°C° 0 mm 3 mps 735 mmHg 85%
    04:00 +3°C° 0 mm 3 mps 735 mmHg 86%
    05:00 +4°C° 0 mm 2 mps 735 mmHg 87%
    06:00 +4°C° 0 mm 3 mps 735 mmHg 83%
    07:00 +5°C° 0 mm 3 mps 736 mmHg 79%
    08:00 +6°C° 0 mm 4 mps 736 mmHg 75%
    09:00 +8°C° 0 mm 4 mps 736 mmHg 70%
    10:00 +9°C° 0 mm 5 mps 737 mmHg 65%
    11:00 +10°C° 0 mm 6 mps 737 mmHg 60%
    12:00 +10°C° 0.2 mm 6 mps 737 mmHg 61%
    13:00 +10°C° 0.2 mm 6 mps 736 mmHg 62%
    14:00 +10°C° 0.2 mm 6 mps 736 mmHg 63%
    15:00 +10°C° 0 mm 6 mps 736 mmHg 62%
    16:00 +10°C° 0 mm 6 mps 736 mmHg 61%
    17:00 +10°C° 0 mm 6 mps 735 mmHg 60%
    18:00 +8°C° 0 mm 5 mps 735 mmHg 66%
    19:00 +7°C° 0 mm 4 mps 735 mmHg 71%
    20:00 +5°C° 0 mm 3 mps 735 mmHg 77%
    21:00 +5°C° 0 mm 3 mps 736 mmHg 80%
    22:00 +5°C° 0 mm 3 mps 736 mmHg 82%
    23:00 +5°C° 0 mm 3 mps 736 mmHg 85%

    24 April, Wednesday

    Time Temperature Precipitation Wind Pressure Humidity
    00:00 +5°C° 0 mm 3 mps 736 mmHg 88%
    01:00 +4°C° 0 mm 3 mps 736 mmHg 91%
    02:00 +4°C° 0 mm 3 mps 736 mmHg 94%
    03:00 +5°C° 0 mm 2 mps 736 mmHg 95%
    04:00 +5°C° 0 mm 2 mps 736 mmHg 95%
    05:00 +4°C° 0 mm 2 mps 736 mmHg 96%
    06:00 +6°C° 0 mm 2 mps 736 mmHg 90%
    07:00 +8°C° 0 mm 3 mps 737 mmHg 85%
    08:00 +10°C° 0 mm 3 mps 737 mmHg 79%
    09:00 +12°C° 0 mm 3 mps 737 mmHg 73%
    10:00 +14°C° 0 mm 3 mps 738 mmHg 66%
    11:00 +17°C° 0 mm 3 mps 738 mmHg 60%
    12:00 +18°C° 0 mm 3 mps 738 mmHg 58%
    13:00 +19°C° 0 mm 3 mps 738 mmHg 57%
    14:00 +19°C° 0 mm 3 mps 738 mmHg 55%
    15:00 +19°C° 0 mm 4 mps 737 mmHg 59%
    16:00 +18°C° 0 mm 4 mps 737 mmHg 63%
    17:00 +16°C° 0 mm 5 mps 737 mmHg 66%
    18:00 +13°C° 0 mm 4 mps 737 mmHg 72%
    19:00 +11°C° 0 mm 3 mps 737 mmHg 78%
    20:00 +9°C° 0 mm 3 mps 737 mmHg 84%
    21:00 +8°C° 0 mm 2 mps 737 mmHg 86%
    22:00 +8°C° 0 mm 2 mps 737 mmHg 88%
    23:00 +7°C° 0 mm 2 mps 737 mmHg 90%

    25 April, Thursday

    Time Temperature Precipitation Wind Pressure Humidity
    00:00 +7°C° 0 mm 2 mps 737 mmHg 91%
    01:00 +6°C° 0 mm 2 mps 737 mmHg 91%
    02:00 +6°C° 0 mm 2 mps 737 mmHg 92%
    03:00 +6°C° 0 mm 2 mps 737 mmHg 92%
    04:00 +6°C° 0 mm 2 mps 737 mmHg 92%
    05:00 +6°C° 0 mm 2 mps 737 mmHg 93%
    06:00 +8°C° 0 mm 2 mps 737 mmHg 87%
    07:00 +10°C° 0 mm 3 mps 738 mmHg 81%
    08:00 +11°C° 0 mm 3 mps 738 mmHg 75%
    09:00 +13°C° 0 mm 3 mps 738 mmHg 69%
    10:00 +15°C° 0 mm 4 mps 738 mmHg 63%
    11:00 +18°C° 0 mm 4 mps 739 mmHg 58%
    12:00 +19°C° 0 mm 4 mps 738 mmHg 57%
    13:00 +20°C° 0 mm 4 mps 738 mmHg 56%
    14:00 +20°C° 0 mm 4 mps 738 mmHg 55%
    15:00 +19°C° 0 mm 5 mps 738 mmHg 57%
    16:00 +17°C° 0 mm 5 mps 737 mmHg 60%
    17:00 +16°C° 0 mm 5 mps 737 mmHg 63%
    18:00 +14°C° 0 mm 4 mps 737 mmHg 70%
    19:00 +11°C° 0 mm 3 mps 737 mmHg 77%
    20:00 +9°C° 0 mm 2 mps 737 mmHg 84%
    21:00 +8°C° 0 mm 2 mps 737 mmHg 86%
    22:00 +8°C° 0 mm 2 mps 737 mmHg 88%
    23:00 +7°C° 0 mm 2 mps 736 mmHg 89%

    26 April, Friday

    Time Temperature Precipitation Wind Pressure Humidity
    00:00 +7°C° 0 mm 2 mps 736 mmHg 89%
    01:00 +7°C° 0 mm 2 mps 736 mmHg 89%
    02:00 +6°C° 0 mm 2 mps 735 mmHg 89%
    03:00 +6°C° 0 mm 2 mps 735 mmHg 88%
    04:00 +6°C° 0 mm 2 mps 735 mmHg 88%
    05:00 +6°C° 0 mm 2 mps 735 mmHg 88%
    06:00 +8°C° 0 mm 3 mps 735 mmHg 82%
    07:00 +9°C° 0 mm 3 mps 735 mmHg 77%
    08:00 +11°C° 0 mm 3 mps 736 mmHg 71%
    09:00 +13°C° 0 mm 4 mps 736 mmHg 66%
    10:00 +15°C° 0 mm 4 mps 735 mmHg 61%
    11:00 +16°C° 0 mm 5 mps 735 mmHg 57%
    12:00 +17°C° 0 mm 5 mps 735 mmHg 56%
    13:00 +19°C° 0 mm 5 mps 735 mmHg 55%
    14:00 +19°C° 0 mm 5 mps 734 mmHg 54%
    15:00 +19°C° 0 mm 5 mps 734 mmHg 56%
    16:00 +18°C° 0 mm 4 mps 734 mmHg 58%
    17:00 +17°C° 0 mm 4 mps 733 mmHg 60%
    18:00 +14°C° 0 mm 3 mps 733 mmHg 64%
    19:00 +13°C° 0 mm 3 mps 733 mmHg 69%
    20:00 +12°C° 0 mm 2 mps 733 mmHg 73%
    21:00 +10°C° 0 mm 2 mps 733 mmHg 74%
    22:00 +10°C° 0 mm 2 mps 733 mmHg 75%
    23:00 +9°C° 0 mm 2 mps 733 mmHg 76%
    Show more